Lid_Strength_Index
-0 -0 -0 -0 -0 -0 -1 -1 -0 -0 0 0 0 0 1 1 1 2 4 2 1 -2 0 4 4 4 5 6 6 8 10 10 9 9 10 6 7 7 4 6 5 5 5 4 2
-0 -0 -0 -0 -0 -1 -1 -0 0 0 0 0 0 1 1 2 3 4 0 -2 -2 -2 4 5 6 5 6 6 6 8 10 10 9 7 7 6 7 6 6 6 6 6 4 3 2
0 0 -0 0 -0 -0 -0 -0 0 0 0 1 1 1 1 2 4 3 -2 -2 -2 -1 4 4 5 5 7 6 7 9 9 10 9 8 5 6 7 6 7 8 6 7 6 4 3
0 1 0 1 0 0 0 0 0 0 1 1 2 2 2 3 8 3 -2 -2 -2 3 4 5 5 7 7 8 7 9 9 10 7 8 8 6 6 7 6 6 4 4 4 4 4
1 1 1 1 1 0 1 1 1 1 1 2 2 3 3 5 5 -0 -1 -1 -0 4 4 5 6 6 7 7 8 9 9 9 9 9 6 8 7 6 8 4 4 4 4 4 4
1 1 1 1 1 1 1 1 1 1 1 2 3 3 5 7 2 -1 -0 1 2 4 5 5 6 5 7 8 8 8 9 9 9 10 9 8 8 7 6 4 5 5 5 4 4
1 1 1 1 1 1 1 1 1 1 2 3 3 4 5 5 2 -0 1 1 3 3 5 5 4 6 6 8 7 8 9 8 9 9 8 7 8 9 6 5 5 5 5 5 3
1 2 2 1 2 2 1 1 2 2 3 3 3 4 6 1 0 2 2 3 2 3 4 3 4 5 7 7 9 10 10 11 8 7 8 8 10 7 6 5 6 5 6 5 5
2 2 2 2 2 2 2 2 2 3 3 3 5 5 6 1 3 3 4 4 4 4 3 4 4 6 7 9 10 10 12 11 9 7 8 7 9 7 7 6 6 6 5 5 5
2 2 2 2 2 2 3 3 3 3 3 3 4 6 4 5 3 4 3 3 4 5 5 6 7 8 9 10 12 11 11 11 10 8 7 9 10 7 6 6 7 6 6 5 5
2 2 1 2 1 3 4 4 6 6 5 6 6 6 5 3 4 4 4 3 4 5 8 7 9 10 9 9 10 10 10 11 11 8 9 10 10 8 7 8 8 7 7 6 6
2 1 1 1 2 3 4 6 5 4 7 4 4 4 3 3 5 5 2 5 6 8 7 8 10 8 7 8 9 9 11 11 9 8 9 9 10 8 7 7 7 6 6 6 6
2 1 1 2 2 4 5 6 3 3 6 6 4 5 4 3 5 6 4 4 7 8 9 9 9 7 8 9 9 10 10 11 11 9 8 9 11 10 8 7 6 6 6 6 6
2 2 2 2 4 5 5 4 4 3 9 8 7 6 5 5 6 4 4 5 7 9 8 8 7 8 9 9 9 11 9 9 10 11 13 10 14 11 10 9 7 7 6 6 6
2 2 2 2 5 4 3 1 4 5 16 8 6 4 5 6 6 5 4 5 8 8 8 9 8 9 9 9 8 10 8 9 10 11 11 11 12 12 9 11 9 7 7 6 6
2 2 2 3 4 4 3 4 5 12 17 9 6 7 7 6 6 6 5 5 6 8 8 9 7 8 8 8 8 7 9 9 10 11 15 12 12 13 12 10 9 7 7 6 6
2 2 2 3 4 2 4 6 12 15 8 10 8 7 8 8 7 8 8 8 9 11 11 9 9 8 7 8 8 8 10 15 16 16 16 12 13 11 9 8 7 7 6 6 5
2 2 2 3 4 4 5 8 13 11 10 8 8 8 9 8 8 8 9 10 9 9 11 12 13 9 8 9 9 10 10 15 19 19 15 12 15 11 9 7 6 6 6 6 6
3 3 4 3 2 3 7 13 12 11 8 8 8 10 9 8 8 9 10 10 9 9 11 12 12 8 8 8 8 10 11 10 14 15 15 13 11 9 9 9 7 7 6 6 6
3 4 3 2 3 4 9 11 10 8 7 8 10 9 11 10 10 10 9 8 9 8 8 10 12 9 8 8 8 9 8 12 12 17 18 15 14 13 11 9 8 7 6 6 7
4 6 5 4 4 7 11 10 9 7 7 8 9 10 10 10 10 10 10 8 7 8 8 10 10 11 9 10 10 10 11 11 11 13 16 17 14 9 9 8 8 7 7 7 7
6 10 5 5 8 10 10 8 8 7 6 7 7 8 9 9 10 11 11 9 7 7 9 10 11 13 11 9 8 9 10 10 14 14 15 15 13 9 9 8 7 8 8 7 7
8 6 2 4 11 12 9 8 7 8 8 7 8 7 7 10 12 10 10 8 8 7 9 9 12 15 13 10 9 10 10 11 11 12 15 17 13 9 8 8 8 7 8 8 8
6 10 7 7 8 9 9 9 9 7 7 7 8 7 9 10 9 11 10 8 8 8 7 8 12 12 15 12 11 11 11 11 11 14 14 14 11 10 9 9 8 8 8 8 8
6 8 7 11 10 9 9 9 10 10 7 7 8 8 9 12 11 11 9 9 8 8 8 9 12 12 12 11 11 11 11 11 11 11 13 11 12 10 8 8 8 8 8 9 8
7 8 9 8 7 8 9 9 9 8 8 8 9 8 8 10 9 12 10 10 10 8 9 10 12 13 13 12 12 12 11 11 11 11 11 11 11 8 8 8 8 8 8 8 8
4 5 6 11 9 9 10 9 9 7 7 7 7 8 10 8 8 9 9 9 8 9 11 12 13 14 15 14 14 14 12 11 11 10 10 12 9 8 9 9 8 8 8 8 8